VCC A (44428 NORAD) Tracking and Keplerian Element Data

This shows tracking and keplerian element data for the satellite.

Feedback or suggestion? Click here.




ElementValue
Catalog44428
NameVCC A
Epoch Orbit696
Epoch Day228.83571542
Epoch Year2019
RAAN60.0734
Inclination51.6423
Eccentricity0.0002794
Argument of Perigee277.8208
Mean Anonmoly82.2464
Mean Motion15.52115827
Decay Rate4.088E-05
L11 44428U 98067QN 19228.83571542 .00004088 00000-0 73975-4 0 9994
L22 44428 51.6423 60.0734 0002794 277.8208 82.2464 15.52115827 6965

Live tracking and technical data element details for VCC A (NORAD 44428). VCC A can be tracked NOW for your location showing map with azimuth and elevation plus other details from your city location.

Track the satellite on the map from your city or location and see movement details for azimuth, elevation, latitude, longitude, range, height, and movement on the map or in text.







IsCatalogInMostPopularTable: catalog: 44428, numindb: 8
Update: records affected: 1



GetName: 44428 VCC A

Hit Count: updated at: Wed, 21 Aug 2019 11:32:33 GMT